"Pseudo-MPEC" for v10jan5

Created 2025 Jan 24 16:31:19 UT using Find_Orb

Click here for an explanation of pseudo-MPECs

 
 Astrometry: 
     v10jan5*2C2025 01 10.36361 16 04 11.312-24 17 22.10   ~1B2l 21.9 rVNEOCPW84
     v10jan5 2C2025 01 10.36593 16 04 11.755-24 17 26.07   ~1B2l 21.8 rVNEOCPW84

Station data:
(W84) Cerro Tololo-DECam  (S30.169594 W70.806420)  Chile.  Observer S. S.
   Sheppard. Measurer S. Deen. 4.0-m reflector + CCD.

Orbital elements:  v10jan5
   Perihelion 2024 Nov 23.63990 +/- 52.1 TT = 15:21:27 (JD 2460638.13990)
Epoch 2025 Jan 10.0 TT = JDT 2460685.5   Earth MOID: 0.2739   Ve: 0.0629
M 148.67977865 +/- 100              Me: 0.0665                   AutoNEOCP
n   3.13934674 +/- 1.68             Peri.   21.52194 +/- 100
a   0.46193037 +/- 0.165            Node   330.48362 +/- 57
e   0.5881279 +/- 0.241             Incl.   18.77750 +/- 60
P   0.314/114.671d         H 20.38  G  0.15   U 13.1  SR
q 0.19025621 +/- 0.36    Q 0.73360454 +/- 8.8             (J2000 ecliptic)
From 2 observations 2025 Jan. 10 (3.3 min); mean residual 0".01
Residuals in arcseconds: 
250110 W84  .02+  .00     250110 W84  .02+  .00     

Ephemerides (geocentric):
Date (UTC) HH   RA             Dec           delta  r     elong  mag " sig PA
---- --------  ------------   ------------  ------ ------ -----  --- --------
2025 01 24 17  17 04 21.877   -30 32 35.65  .77824 .72999  47.2 22.0  48d 109
2025 01 24 18  17 04 34.992   -30 33 31.66  .77823 .72992  47.2 22.0  48d 109
2025 01 24 19  17 04 48.123   -30 34 27.59  .77823 .72986  47.1 22.0  48d 109
2025 01 24 20  17 05 01.270   -30 35 23.42  .77822 .72979  47.1 22.0  48d 109
2025 01 24 21  17 05 14.433   -30 36 19.18  .77821 .72973  47.1 22.0  49d 109
2025 01 24 22  17 05 27.612   -30 37 14.84  .77821 .72966  47.1 22.0  49d 109
2025 01 24 23  17 05 40.807   -30 38 10.42  .77820 .72959  47.1 22.0  49d 109
2025 01 25 00  17 05 54.018   -30 39 05.91  .77820 .72953  47.1 22.0  49d 109
2025 01 25 01  17 06 07.245   -30 40 01.31  .77819 .72946  47.1 22.0  49d 109
2025 01 25 02  17 06 20.489   -30 40 56.63  .77818 .72939  47.1 22.0  49d 109
2025 01 25 03  17 06 33.748   -30 41 51.85  .77818 .72932  47.1 22.0  49d 109
2025 01 25 04  17 06 47.023   -30 42 46.99  .77817 .72925  47.1 22.0  49d 109
2025 01 25 05  17 07 00.314   -30 43 42.04  .77817 .72918  47.1 22.0  49d 109
2025 01 25 06  17 07 13.622   -30 44 37.00  .77816 .72911  47.1 22.0  49d 109
2025 01 25 07  17 07 26.945   -30 45 31.87  .77816 .72904  47.1 22.0  49d 109
2025 01 25 08  17 07 40.285   -30 46 26.65  .77815 .72897  47.1 22.0  49d 109
2025 01 25 09  17 07 53.640   -30 47 21.34  .77815 .72889  47.1 22.0  49d 109
2025 01 25 10  17 08 07.012   -30 48 15.94  .77814 .72882  47.1 22.0  49d 109
2025 01 25 11  17 08 20.400   -30 49 10.44  .77814 .72875  47.1 22.0  49d 109
2025 01 25 12  17 08 33.803   -30 50 04.86  .77813 .72867  47.1 22.0  49d 109
2025 01 25 13  17 08 47.223   -30 50 59.19  .77813 .72860  47.1 22.0  49d 109
2025 01 25 14  17 09 00.659   -30 51 53.42  .77812 .72852  47.0 22.0  49d 109
2025 01 25 15  17 09 14.111   -30 52 47.56  .77812 .72845  47.0 22.0  49d 109
2025 01 25 16  17 09 27.580   -30 53 41.61  .77812 .72837  47.0 22.0  49d 109
2025 01 25 17  17 09 41.064   -30 54 35.56  .77811 .72829  47.0 22.0  49d 109
2025 01 25 18  17 09 54.564   -30 55 29.42  .77811 .72821  47.0 22.0  49d 109
2025 01 25 19  17 10 08.081   -30 56 23.19  .77810 .72814  47.0 22.0  49d 109
2025 01 25 20  17 10 21.613   -30 57 16.86  .77810 .72806  47.0 22.0  49d 109
2025 01 25 21  17 10 35.162   -30 58 10.44  .77810 .72798  47.0 22.0  49d 109
2025 01 25 22  17 10 48.727   -30 59 03.93  .77809 .72790  47.0 22.0  49d 109
2025 01 25 23  17 11 02.308   -30 59 57.32  .77809 .72782  47.0 22.0  49d 109
2025 01 26 00  17 11 15.905   -31 00 50.61  .77808 .72774  47.0 22.0  49d 109
2025 01 26 01  17 11 29.518   -31 01 43.81  .77808 .72765  47.0 22.0  49d 109
2025 01 26 02  17 11 43.147   -31 02 36.91  .77808 .72757  47.0 22.0  49d 109
2025 01 26 03  17 11 56.793   -31 03 29.92  .77807 .72749  47.0 22.0  49d 109
2025 01 26 04  17 12 10.454   -31 04 22.82  .77807 .72741  47.0 22.0  49d 109
2025 01 26 05  17 12 24.132   -31 05 15.64  .77807 .72732  47.0 22.0  49d 109
2025 01 26 06  17 12 37.826   -31 06 08.35  .77807 .72724  46.9 22.0  49d 110
2025 01 26 07  17 12 51.536   -31 07 00.97  .77806 .72715  46.9 22.0  49d 110
2025 01 26 08  17 13 05.262   -31 07 53.48  .77806 .72707  46.9 22.0  49d 110
2025 01 26 09  17 13 19.005   -31 08 45.90  .77806 .72698  46.9 22.0  49d 110
2025 01 26 10  17 13 32.763   -31 09 38.22  .77806 .72689  46.9 22.0  49d 110
2025 01 26 11  17 13 46.538   -31 10 30.44  .77805 .72681  46.9 22.0  49d 110
2025 01 26 12  17 14 00.328   -31 11 22.57  .77805 .72672  46.9 22.0  49d 110
2025 01 26 13  17 14 14.135   -31 12 14.59  .77805 .72663  46.9 22.0  49d 110
2025 01 26 14  17 14 27.959   -31 13 06.51  .77805 .72654  46.9 22.0  49d 110
2025 01 26 15  17 14 41.798   -31 13 58.33  .77804 .72645  46.9 22.0  49d 110
2025 01 26 16  17 14 55.653   -31 14 50.05  .77804 .72636  46.9 22.0  49d 110